• Join FlightAware (Why Join?)
  • Login
  • US Flag GB Flag 
09:32 EST


 

Airport Tracker/Info


-or-


 

Live Flight TrackerFlight Track Log ✈ SWA3497 ✈ 26-Apr-2013 ✈ KBWI - KALB

Flight Track Log - Related Links

Times and Time Zones

All times are in EDT time to prevent confusion due to time zone crossing. See the SWA3497 flight status page for this flight to view local times or setup timezone preferences in your user account.

Time Position Orientation Groundspeed Altitude Reporting Facility
EDT Latitude Longitude Course Direction KTS MPH feet Rate Location/Type
16:16 39.1833 -76.7167 140° Southeast 169 194 2,000  Level Potomac TRACON
16:18 39.1256 -76.6539 140° Southeast 107 123 6,500 2,300 Climbing Washington Center
16:19 39.1325 -76.5469 85° East 182 209 8,900 1,475 Climbing Washington Center
16:20 39.1167 -76.4422 101° East 253 291 9,400 2,085 Climbing Washington Center
16:21 39.0653 -76.3536 127° Southeast 273 314 13,000 3,421 Climbing Washington Center
16:22 39.0514 -76.2383 99° East 296 341 16,300 2,521 Climbing Washington Center
16:23 39.0664 -76.0969 82° East 326 375 18,000 1,361 Climbing Washington Center
16:24 39.1314 -75.9903 52° Northeast 328 377 19,000 1,884 Climbing Washington Center
16:25 39.1986 -75.8756 53° Northeast 367 422 21,800 2,410 Climbing Washington Center
16:26 39.2822 -75.7658 45° Northeast 393 452 23,900 2,231 Climbing Washington Center
16:27 39.3656 -75.6586 45° Northeast 412 474 26,300 1,537 Climbing Washington Center
16:28 39.4511 -75.5458 45° Northeast 423 487 27,000 353 Climbing Washington Center
16:29 39.5406 -75.4300 45° Northeast 434 499 27,000  Level Washington Center
16:30 39.6278 -75.3167 45° Northeast 434 499 27,000  Level Washington Center
16:31 39.7108 -75.2003 47° Northeast 434 499 27,000  Level Washington Center
16:31 39.7664 -75.1217 47° Northeast 436 502 27,000  Level New York Center
16:32 39.8500 -75.0025 48° Northeast 458 527 27,000  Level New York Center
16:33 39.9336 -74.8831 48° Northeast 450 518 27,000  Level New York Center
16:34 40.0256 -74.7531 47° Northeast 450 518 27,000  Level New York Center
16:35 40.1086 -74.6328 48° Northeast 450 518 27,000  Level New York Center
16:36 40.1997 -74.5264 42° Northeast 450 518 27,000  Level New York Center
16:37 40.2925 -74.4228 40° Northeast 439 505 27,000  Level New York Center
16:38 40.3853 -74.3214 40° Northeast 433 498 27,000  Level New York Center
16:39 40.4781 -74.2142 41° Northeast 433 498 27,000 -252 Level New York Center
16:40 40.5706 -74.1125 40° Northeast 433 498 26,500 -887 Descending New York Center
16:43 40.7844 -73.8708 41° Northeast 442 509 24,000 -739 Descending Boston Center
16:44 40.8817 -73.7550 42° Northeast 431 496 24,000 -400 Level Boston Center
16:45 40.9686 -73.6386 45° Northeast 426 490 23,200 -500 Descending Boston Center
16:46 41.0714 -73.5717 26° Northeast 405 466 23,000 -300 Descending Boston Center
16:47 41.1839 -73.5681 North 391 450 22,600 -700 Descending Boston Center
16:48 41.2944 -73.5644 North 391 450 21,600 -1,100 Descending Boston Center
16:49 41.4028 -73.5608 North 391 450 20,400 -1,750 Descending Boston Center
16:50 41.5069 -73.5544 North 379 436 18,100 -1,650 Descending Boston Center
16:51 41.6008 -73.5506 North 373 429 17,100 -1,050 Descending Boston Center
16:52 41.7136 -73.5442 North 367 422 16,000 -1,100 Descending Boston Center
16:53 41.8156 -73.5431 360° North 367 422 14,900 -1,000 Descending Boston Center
16:54 41.9136 -73.5364 North 362 417 14,000 -982 Descending Boston Center
16:55 42.0033 -73.5325 North 357 411 13,100 -1,000 Descending Boston Center
16:56 42.1033 -73.5286 North 352 405 12,000 -923 Descending Boston Center
16:57 42.2078 -73.5136 North 346 398 11,100 -750 Descending Boston Center
16:58 42.2931 -73.5403 347° North 327 376 10,500 -1,150 Descending Boston Center
16:59 42.3594 -73.5556 350° North 295 339 8,800 -2,050 Descending Boston Center
17:00 42.4406 -73.5767 349° North 268 308 6,400 -2,000 Descending Boston Center
17:01 42.5153 -73.6006 347° North 258 297 4,600 -1,181 Descending Boston Center
17:02 42.5819 -73.6217 347° North 242 278 3,900 -835 Descending Boston Center
17:03 42.6400 -73.6397 347° North 228 262 3,000 -887 Descending Boston Center
17:04 42.6981 -73.6606 345° North 211 243 2,200 -541 Descending Boston Center
17:05 42.7414 -73.6953 330° Northwest 172 198 1,900 -369 Descending Boston Center
17:06 42.7828 -73.7386 322° Northwest 163 188 1,400 -435 Descending Boston Center
17:11 42.7557 -73.8000 180° South  Level FlightAware Approximate